Time,TemperatureF,DewpointF,PressureIn,WindDirection,WindDirectionDegrees,WindSpeedMPH,WindSpeedGustMPH,Humidity,HourlyPrecipIn,Conditions,Clouds,dailyrainin,SoftwareType,DateUTC
2013-05-05 00:01:00,43.1,40.4,30.18,NNE,29,7.0,7.0,90,0.00,,,0.00,Wunderground v.1.15,2013-05-05 05:01:00,
2013-05-05 00:11:00,43.2,40.5,30.18,ENE,63,8.0,31.0,90,0.00,,,0.00,Wunderground v.1.15,2013-05-05 05:11:00,
2013-05-05 00:21:00,43.3,40.3,30.18,NNE,28,9.0,31.0,89,0.00,,,0.00,Wunderground v.1.15,2013-05-05 05:21:00,
2013-05-05 00:31:00,43.2,40.2,30.18,NNE,27,11.0,11.0,89,0.00,,,0.00,Wunderground v.1.15,2013-05-05 05:31:00,
2013-05-05 00:41:00,43.1,40.4,30.18,North,6,9.0,9.0,90,0.00,,,0.00,Wunderground v.1.15,2013-05-05 05:41:00,
2013-05-05 00:51:00,43.0,40.6,30.18,NW,316,6.0,6.0,91,0.00,,,0.00,Wunderground v.1.15,2013-05-05 05:51:00,
2013-05-05 01:02:00,42.8,40.9,30.18,NNE,28,8.0,8.0,93,0.00,,,0.00,Wunderground v.1.15,2013-05-05 06:02:00,
2013-05-05 01:12:00,42.8,40.9,30.18,NE,50,7.0,31.0,93,0.00,,,0.00,Wunderground v.1.15,2013-05-05 06:12:00,
2013-05-05 01:22:00,42.7,40.8,30.18,NNW,336,7.0,31.0,93,0.00,,,0.00,Wunderground v.1.15,2013-05-05 06:22:00,
2013-05-05 01:32:00,42.8,41.2,30.18,NW,308,7.0,7.0,94,0.00,,,0.00,Wunderground v.1.15,2013-05-05 06:32:00,
2013-05-05 01:42:00,42.8,40.9,30.18,North,349,6.0,31.0,93,0.00,,,0.00,Wunderground v.1.15,2013-05-05 06:42:00,
2013-05-05 01:52:00,42.8,40.9,30.18,NNW,348,6.0,6.0,93,0.00,,,0.00,Wunderground v.1.15,2013-05-05 06:52:00,
2013-05-05 02:02:00,42.7,41.1,30.18,NNW,341,6.0,31.0,94,0.00,,,0.00,Wunderground v.1.15,2013-05-05 07:02:00,
2013-05-05 02:12:00,42.6,41.0,30.18,NW,318,5.0,31.0,94,0.00,,,0.00,Wunderground v.1.15,2013-05-05 07:12:00,
2013-05-05 02:22:00,42.5,40.9,30.18,NW,305,7.0,7.0,94,0.00,,,0.00,Wunderground v.1.15,2013-05-05 07:22:00,
2013-05-05 02:32:00,42.5,40.9,30.18,WNW,300,6.0,6.0,94,0.00,,,0.00,Wunderground v.1.15,2013-05-05 07:32:00,
2013-05-05 02:42:00,42.5,40.9,30.18,NW,304,6.0,6.0,94,0.00,,,0.00,Wunderground v.1.15,2013-05-05 07:42:00,
2013-05-05 02:52:00,42.5,40.9,30.18,NW,304,7.0,7.0,94,0.00,,,0.00,Wunderground v.1.15,2013-05-05 07:52:00,
2013-05-05 03:02:00,42.4,40.8,30.18,NNW,345,6.0,31.0,94,0.00,,,0.00,Wunderground v.1.15,2013-05-05 08:02:00,
2013-05-05 03:12:00,42.4,40.5,30.18,NNW,337,8.0,31.0,93,0.00,,,0.00,Wunderground v.1.15,2013-05-05 08:12:00,
2013-05-05 03:22:00,42.6,40.4,30.18,NNE,26,9.0,31.0,92,0.00,,,0.00,Wunderground v.1.15,2013-05-05 08:22:00,
2013-05-05 03:32:00,42.7,40.5,30.18,NNE,18,6.0,31.0,92,0.00,,,0.00,Wunderground v.1.15,2013-05-05 08:32:00,
2013-05-05 03:42:00,42.6,40.4,30.18,WNW,285,6.0,6.0,92,0.00,,,0.00,Wunderground v.1.15,2013-05-05 08:42:00,
2013-05-05 03:52:00,42.6,40.4,30.18,NNW,328,6.0,6.0,92,0.00,,,0.00,Wunderground v.1.15,2013-05-05 08:52:00,
2013-05-05 04:02:00,42.6,40.4,30.19,WNW,295,6.0,6.0,92,0.00,,,0.00,Wunderground v.1.15,2013-05-05 09:02:00,
2013-05-05 04:12:00,42.6,40.4,30.18,NNW,345,6.0,31.0,92,0.00,,,0.00,Wunderground v.1.15,2013-05-05 09:12:00,
2013-05-05 04:22:00,42.6,40.4,30.18,NW,312,6.0,31.0,92,0.00,,,0.00,Wunderground v.1.15,2013-05-05 09:22:00,
2013-05-05 04:32:00,42.7,40.5,30.18,WNW,303,7.0,31.0,92,0.00,,,0.00,Wunderground v.1.15,2013-05-05 09:32:00,
2013-05-05 04:42:00,42.8,40.6,30.18,NW,305,8.0,31.0,92,0.00,,,0.00,Wunderground v.1.15,2013-05-05 09:42:00,
2013-05-05 04:52:00,42.9,40.7,30.19,NW,313,9.0,9.0,92,0.00,,,0.00,Wunderground v.1.15,2013-05-05 09:52:00,
2013-05-05 05:02:00,43.0,40.6,30.19,NW,316,8.0,8.0,91,0.00,,,0.00,Wunderground v.1.15,2013-05-05 10:02:00,
2013-05-05 05:12:00,43.0,40.8,30.19,NW,320,9.0,9.0,92,0.00,,,0.00,Wunderground v.1.15,2013-05-05 10:12:00,
2013-05-05 05:22:00,42.9,41.0,30.19,NNE,20,7.0,7.0,93,0.00,,,0.00,Wunderground v.1.15,2013-05-05 10:22:00,
2013-05-05 05:32:00,42.8,40.9,30.19,West,277,7.0,31.0,93,0.00,,,0.00,Wunderground v.1.15,2013-05-05 10:32:00,
2013-05-05 05:42:00,42.7,40.8,30.18,NNW,330,9.0,9.0,93,0.00,,,0.00,Wunderground v.1.15,2013-05-05 10:42:00,
2013-05-05 05:52:00,42.7,41.1,30.19,WNW,301,8.0,31.0,94,0.00,,,0.00,Wunderground v.1.15,2013-05-05 10:52:00,
2013-05-05 06:02:00,42.7,41.1,30.19,NNW,335,8.0,31.0,94,0.00,,,0.00,Wunderground v.1.15,2013-05-05 11:02:00,
2013-05-05 06:12:00,42.7,41.1,30.19,NNW,342,10.0,31.0,94,0.00,,,0.00,Wunderground v.1.15,2013-05-05 11:12:00,
2013-05-05 06:22:00,42.7,40.8,30.19,NW,323,9.0,9.0,93,0.00,,,0.00,Wunderground v.1.15,2013-05-05 11:22:00,
2013-05-05 06:32:00,42.7,40.8,30.20,West,266,9.0,9.0,93,0.00,,,0.00,Wunderground v.1.15,2013-05-05 11:32:00,
2013-05-05 06:42:00,42.8,40.9,30.20,NW,316,9.0,31.0,93,0.00,,,0.00,Wunderground v.1.15,2013-05-05 11:42:00,
2013-05-05 06:52:00,42.8,40.6,30.20,WNW,301,10.0,10.0,92,0.00,,,0.00,Wunderground v.1.15,2013-05-05 11:52:00,
2013-05-05 07:02:00,42.9,40.7,30.21,WNW,294,9.0,31.0,92,0.00,,,0.00,Wunderground v.1.15,2013-05-05 12:02:00,
2013-05-05 07:12:00,43.0,40.8,30.21,WNW,303,10.0,10.0,92,0.00,,,0.00,Wunderground v.1.15,2013-05-05 12:12:00,
2013-05-05 07:22:00,43.1,40.9,30.21,WNW,303,9.0,31.0,92,0.00,,,0.00,Wunderground v.1.15,2013-05-05 12:22:00,
2013-05-05 07:32:00,43.2,41.0,30.22,NW,318,8.0,8.0,92,0.00,,,0.00,Wunderground v.1.15,2013-05-05 12:32:00,
2013-05-05 07:42:00,43.4,41.2,30.22,NW,321,8.0,8.0,92,0.00,,,0.00,Wunderground v.1.15,2013-05-05 12:42:00,
2013-05-05 07:52:00,43.4,41.2,30.22,North,9,7.0,31.0,92,0.00,,,0.00,Wunderground v.1.15,2013-05-05 12:52:00,
2013-05-05 08:02:00,43.4,41.5,30.23,NNW,328,8.0,8.0,93,0.00,,,0.00,Wunderground v.1.15,2013-05-05 13:02:00,
2013-05-05 08:12:00,43.6,42.0,30.23,NNW,345,7.0,7.0,94,0.00,,,0.00,Wunderground v.1.15,2013-05-05 13:12:00,
2013-05-05 08:22:00,43.8,42.2,30.23,NNE,13,7.0,7.0,94,0.00,,,0.00,Wunderground v.1.15,2013-05-05 13:22:00,
2013-05-05 08:32:00,43.9,42.0,30.23,WNW,300,7.0,31.0,93,0.00,,,0.00,Wunderground v.1.15,2013-05-05 13:32:00,
2013-05-05 08:42:00,44.3,42.4,30.23,NW,319,7.0,7.0,93,0.00,,,0.00,Wunderground v.1.15,2013-05-05 13:42:00,
2013-05-05 08:52:00,44.7,42.5,30.24,NNW,335,6.0,31.0,92,0.00,,,0.00,Wunderground v.1.15,2013-05-05 13:52:00,
2013-05-05 09:02:00,44.8,42.6,30.24,WNW,297,7.0,7.0,92,0.00,,,0.00,Wunderground v.1.15,2013-05-05 14:02:00,
2013-05-05 09:12:00,45.1,42.6,30.24,WNW,295,7.0,31.0,91,0.00,,,0.00,Wunderground v.1.15,2013-05-05 14:12:00,
2013-05-05 09:22:00,45.6,42.8,30.24,NNW,333,8.0,8.0,90,0.00,,,0.00,Wunderground v.1.15,2013-05-05 14:22:00,
2013-05-05 09:32:00,46.0,43.2,30.24,NW,308,9.0,9.0,90,0.00,,,0.00,Wunderground v.1.15,2013-05-05 14:32:00,
2013-05-05 09:42:00,46.3,43.2,30.24,ENE,78,9.0,9.0,89,0.00,,,0.00,Wunderground v.1.15,2013-05-05 14:42:00,
2013-05-05 09:52:00,46.8,43.7,30.23,ENE,57,10.0,10.0,89,0.00,,,0.00,Wunderground v.1.15,2013-05-05 14:52:00,
2013-05-05 10:02:00,47.0,43.9,30.23,West,269,8.0,8.0,89,0.00,,,0.00,Wunderground v.1.15,2013-05-05 15:02:00,
2013-05-05 10:12:00,46.7,43.6,30.23,North,9,8.0,31.0,89,0.00,,,0.00,Wunderground v.1.15,2013-05-05 15:12:00,
2013-05-05 10:22:00,46.9,43.8,30.23,NW,313,9.0,9.0,89,0.00,,,0.00,Wunderground v.1.15,2013-05-05 15:22:00,
2013-05-05 10:32:00,47.2,43.8,30.23,WNW,301,9.0,9.0,88,0.00,,,0.00,Wunderground v.1.15,2013-05-05 15:32:00,
2013-05-05 10:42:00,47.6,44.2,30.23,NNW,345,9.0,31.0,88,0.00,,,0.00,Wunderground v.1.15,2013-05-05 15:42:00,
2013-05-05 10:52:00,47.9,44.5,30.24,West,269,9.0,9.0,88,0.00,,,0.00,Wunderground v.1.15,2013-05-05 15:52:00,
2013-05-05 11:02:00,48.2,44.5,30.24,North,8,8.0,8.0,87,0.00,,,0.00,Wunderground v.1.15,2013-05-05 16:02:00,
2013-05-05 11:12:00,48.3,44.3,30.24,NNW,330,10.0,10.0,86,0.00,,,0.00,Wunderground v.1.15,2013-05-05 16:12:00,
2013-05-05 11:22:00,49.1,44.8,30.24,NW,307,8.0,31.0,85,0.00,,,0.00,Wunderground v.1.15,2013-05-05 16:22:00,
2013-05-05 11:32:00,49.9,44.9,30.24,NNE,18,8.0,31.0,83,0.00,,,0.00,Wunderground v.1.15,2013-05-05 16:32:00,
2013-05-05 11:42:00,50.5,45.2,30.24,NNE,31,10.0,10.0,82,0.00,,,0.00,Wunderground v.1.15,2013-05-05 16:42:00,
2013-05-05 11:52:00,51.3,46.3,30.24,NNE,26,10.0,10.0,83,0.00,,,0.00,Wunderground v.1.15,2013-05-05 16:52:00,
2013-05-05 12:12:00,52.4,46.1,30.24,NW,308,7.0,31.0,79,0.00,,,0.00,Wunderground v.1.15,2013-05-05 17:12:00,
2013-05-05 12:22:00,53.1,46.4,30.23,North,4,10.0,31.0,78,0.00,,,0.00,Wunderground v.1.15,2013-05-05 17:22:00,
2013-05-05 12:32:00,53.3,47.0,30.23,NW,308,8.0,31.0,79,0.00,,,0.00,Wunderground v.1.15,2013-05-05 17:32:00,
2013-05-05 12:42:00,53.4,47.4,30.23,NNE,23,8.0,31.0,80,0.00,,,0.00,Wunderground v.1.15,2013-05-05 17:42:00,
2013-05-05 12:52:00,54.2,47.1,30.23,WNW,302,7.0,7.0,77,0.00,,,0.00,Wunderground v.1.15,2013-05-05 17:52:00,
2013-05-05 13:02:00,54.4,47.0,30.22,WNW,290,8.0,8.0,76,0.00,,,0.00,Wunderground v.1.15,2013-05-05 18:02:00,
2013-05-05 13:12:00,54.7,47.3,30.22,NNW,336,7.0,31.0,76,0.00,,,0.00,Wunderground v.1.15,2013-05-05 18:12:00,
2013-05-05 13:22:00,55.7,47.9,30.21,NW,311,7.0,31.0,75,0.00,,,0.00,Wunderground v.1.15,2013-05-05 18:22:00,
2013-05-05 13:32:00,55.9,48.1,30.21,North,350,8.0,8.0,75,0.00,,,0.00,Wunderground v.1.15,2013-05-05 18:32:00,
2013-05-05 13:42:00,56.7,48.5,30.20,NW,307,8.0,31.0,74,0.00,,,0.00,Wunderground v.1.15,2013-05-05 18:42:00,
2013-05-05 13:52:00,56.7,48.1,30.20,WNW,294,8.0,31.0,73,0.00,,,0.00,Wunderground v.1.15,2013-05-05 18:52:00,
2013-05-05 14:02:00,57.4,48.8,30.20,NNW,331,8.0,8.0,73,0.00,,,0.00,Wunderground v.1.15,2013-05-05 19:02:00,
2013-05-05 14:12:00,58.4,49.4,30.19,WNW,288,7.0,31.0,72,0.00,,,0.00,Wunderground v.1.15,2013-05-05 19:12:00,
2013-05-05 14:22:00,58.7,50.1,30.19,WNW,301,8.0,31.0,73,0.00,,,0.00,Wunderground v.1.15,2013-05-05 19:22:00,
2013-05-05 14:32:00,59.6,49.8,30.19,NW,305,7.0,7.0,70,0.00,,,0.00,Wunderground v.1.15,2013-05-05 19:32:00,
2013-05-05 14:52:00,60.4,50.6,30.18,NNE,17,6.0,6.0,70,0.00,,,0.00,Wunderground v.1.15,2013-05-05 19:52:00,
2013-05-05 15:02:00,60.5,50.7,30.18,WNW,290,6.0,6.0,70,0.00,,,0.00,Wunderground v.1.15,2013-05-05 20:02:00,
2013-05-05 15:12:00,60.5,51.0,30.17,North,11,7.0,7.0,71,0.00,,,0.00,Wunderground v.1.15,2013-05-05 20:12:00,
2013-05-05 16:27:00,59.5,50.5,30.16,NE,37,7.0,7.0,72,0.00,,,0.00,Wunderground v.1.15,2013-05-05 21:27:00,
2013-05-05 16:42:00,59.7,50.7,30.15,NE,46,7.0,9.0,72,0.00,,,0.00,Wunderground v.1.15,2013-05-05 21:42:00,
2013-05-05 16:52:00,59.9,51.2,30.14,ENE,73,8.0,8.0,73,0.00,,,0.00,Wunderground v.1.15,2013-05-05 21:52:00,
2013-05-05 17:02:00,60.1,50.7,30.14,ENE,59,8.0,12.0,71,0.00,,,0.00,Wunderground v.1.15,2013-05-05 22:02:00,
2013-05-05 17:12:00,60.2,51.1,30.14,ENE,69,7.0,8.0,72,0.00,,,0.00,Wunderground v.1.15,2013-05-05 22:12:00,
2013-05-05 17:22:00,59.8,50.8,30.14,NE,40,8.0,8.0,72,0.00,,,0.00,Wunderground v.1.15,2013-05-05 22:22:00,
2013-05-05 17:32:00,60.0,50.6,30.14,NE,51,9.0,9.0,71,0.00,,,0.00,Wunderground v.1.15,2013-05-05 22:32:00,
2013-05-05 17:42:00,60.4,51.0,30.14,NNE,25,7.0,12.0,71,0.00,,,0.00,Wunderground v.1.15,2013-05-05 22:42:00,
2013-05-05 17:52:00,60.0,50.6,30.14,NE,53,8.0,12.0,71,0.00,,,0.00,Wunderground v.1.15,2013-05-05 22:52:00,
2013-05-05 18:02:00,59.9,51.2,30.14,ENE,57,7.0,12.0,73,0.00,,,0.00,Wunderground v.1.15,2013-05-05 23:02:00,
2013-05-05 18:12:00,59.4,51.1,30.14,NE,41,8.0,12.0,74,0.00,,,0.00,Wunderground v.1.15,2013-05-05 23:12:00,
2013-05-05 18:22:00,59.3,51.0,30.14,NNE,33,7.0,12.0,74,0.00,,,0.00,Wunderground v.1.15,2013-05-05 23:22:00,
2013-05-05 18:32:00,59.2,50.9,30.14,NE,51,7.0,12.0,74,0.00,,,0.00,Wunderground v.1.15,2013-05-05 23:32:00,
2013-05-05 18:42:00,59.2,50.9,30.14,NE,41,5.0,5.0,74,0.00,,,0.00,Wunderground v.1.15,2013-05-05 23:42:00,
2013-05-05 18:52:00,59.1,50.8,30.13,ENE,70,5.0,12.0,74,0.00,,,0.00,Wunderground v.1.15,2013-05-05 23:52:00,
2013-05-05 19:02:00,59.0,50.7,30.14,ENE,65,6.0,12.0,74,0.00,,,0.00,Wunderground v.1.15,2013-05-06 00:02:00,
2013-05-05 19:12:00,58.8,50.9,30.13,ENE,67,4.0,4.0,75,0.00,,,0.00,Wunderground v.1.15,2013-05-06 00:12:00,
2013-05-05 19:22:00,58.7,50.8,30.13,NE,51,3.0,12.0,75,0.00,,,0.00,Wunderground v.1.15,2013-05-06 00:22:00,
2013-05-05 19:32:00,58.6,50.7,30.13,NE,47,3.0,3.0,75,0.00,,,0.00,Wunderground v.1.15,2013-05-06 00:32:00,
2013-05-05 19:42:00,58.5,51.0,30.13,ENE,62,2.0,2.0,76,0.00,,,0.00,Wunderground v.1.15,2013-05-06 00:42:00,
2013-05-05 19:52:00,58.3,50.8,30.13,NNW,328,0.0,12.0,76,0.00,,,0.00,Wunderground v.1.15,2013-05-06 00:52:00,
2013-05-05 20:02:00,57.8,50.6,30.13,West,279,1.0,1.0,77,0.00,,,0.00,Wunderground v.1.15,2013-05-06 01:02:00,
2013-05-05 20:12:00,56.9,50.5,30.13,ENE,57,2.0,12.0,79,0.00,,,0.00,Wunderground v.1.15,2013-05-06 01:12:00,
2013-05-05 20:22:00,56.7,50.3,30.13,ENE,68,3.0,12.0,79,0.00,,,0.00,Wunderground v.1.15,2013-05-06 01:22:00,
2013-05-05 20:32:00,56.4,50.0,30.13,ENE,64,2.0,12.0,79,0.00,,,0.00,Wunderground v.1.15,2013-05-06 01:32:00,
2013-05-05 20:42:00,56.0,49.9,30.14,ENE,63,1.0,12.0,80,0.00,,,0.00,Wunderground v.1.15,2013-05-06 01:42:00,
2013-05-05 20:52:00,55.4,49.7,30.14,ENE,63,1.0,12.0,81,0.00,,,0.00,Wunderground v.1.15,2013-05-06 01:52:00,
2013-05-05 20:57:00,55.3,49.9,30.14,ENE,63,2.0,12.0,82,0.00,,,0.00,Wunderground v.1.15,2013-05-06 01:57:00,
2013-05-05 21:02:00,55.3,49.6,30.14,ENE,74,3.0,3.0,81,0.00,,,0.00,Wunderground v.1.15,2013-05-06 02:02:00,
2013-05-05 21:07:00,55.5,49.8,30.14,NE,47,3.0,12.0,81,0.00,,,0.00,Wunderground v.1.15,2013-05-06 02:07:00,
2013-05-05 21:12:00,55.3,49.6,30.14,NE,49,2.0,12.0,81,0.00,,,0.00,Wunderground v.1.15,2013-05-06 02:12:00,
2013-05-05 21:22:00,55.3,49.6,30.14,NE,56,2.0,12.0,81,0.00,,,0.00,Wunderground v.1.15,2013-05-06 02:22:00,
2013-05-05 21:27:00,55.2,49.5,30.14,ENE,61,2.0,12.0,81,0.00,,,0.00,Wunderground v.1.15,2013-05-06 02:27:00,
2013-05-05 21:32:00,55.1,49.4,30.14,ENE,60,2.0,12.0,81,0.00,,,0.00,Wunderground v.1.15,2013-05-06 02:32:00,
2013-05-05 21:37:00,55.0,49.6,30.14,ENE,60,2.0,12.0,82,0.00,,,0.00,Wunderground v.1.15,2013-05-06 02:37:00,
2013-05-05 21:42:00,55.0,49.6,30.15,ENE,71,2.0,12.0,82,0.00,,,0.00,Wunderground v.1.15,2013-05-06 02:42:00,
2013-05-05 21:47:00,55.1,49.4,30.15,ENE,71,2.0,12.0,81,0.00,,,0.00,Wunderground v.1.15,2013-05-06 02:47:00,
2013-05-05 21:57:00,55.0,49.6,30.16,ENE,70,1.0,12.0,82,0.00,,,0.00,Wunderground v.1.15,2013-05-06 02:57:00,
2013-05-05 22:02:00,53.9,48.2,30.16,West,274,0.0,12.0,81,0.00,,,0.00,Wunderground v.1.15,2013-05-06 03:02:00,
2013-05-05 22:07:00,52.7,48.3,30.16,West,274,0.0,12.0,85,0.00,,,0.00,Wunderground v.1.15,2013-05-06 03:07:00,
2013-05-05 22:12:00,52.3,48.5,30.16,West,274,0.0,12.0,87,0.00,,,0.00,Wunderground v.1.15,2013-05-06 03:12:00,
2013-05-05 22:17:00,52.0,48.3,30.16,West,276,0.0,12.0,87,0.00,,,0.00,Wunderground v.1.15,2013-05-06 03:17:00,
2013-05-05 22:22:00,51.8,48.4,30.16,West,276,0.0,12.0,88,0.00,,,0.00,Wunderground v.1.15,2013-05-06 03:22:00,
2013-05-05 22:27:00,51.6,48.2,30.16,West,276,0.0,12.0,88,0.00,,,0.00,Wunderground v.1.15,2013-05-06 03:27:00,
2013-05-05 22:32:00,51.3,48.2,30.16,West,276,0.0,12.0,89,0.00,,,0.00,Wunderground v.1.15,2013-05-06 03:32:00,
2013-05-05 22:37:00,51.5,48.7,30.16,ENE,64,1.0,12.0,90,0.00,,,0.00,Wunderground v.1.15,2013-05-06 03:37:00,
2013-05-05 22:42:00,52.1,49.0,30.16,ENE,72,2.0,12.0,89,0.00,,,0.00,Wunderground v.1.15,2013-05-06 03:42:00,
2013-05-05 22:52:00,52.6,48.8,30.16,East,80,4.0,4.0,87,0.00,,,0.00,Wunderground v.1.15,2013-05-06 03:52:00,
2013-05-05 22:57:00,52.5,48.7,30.16,ENE,67,3.0,12.0,87,0.00,,,0.00,Wunderground v.1.15,2013-05-06 03:57:00,
2013-05-05 23:02:00,52.4,48.6,30.16,ENE,77,3.0,3.0,87,0.00,,,0.00,Wunderground v.1.15,2013-05-06 04:02:00,
2013-05-05 23:07:00,52.3,48.5,30.16,ENE,69,2.0,12.0,87,0.00,,,0.00,Wunderground v.1.15,2013-05-06 04:07:00,
2013-05-05 23:12:00,52.2,48.4,30.16,ENE,69,2.0,2.0,87,0.00,,,0.00,Wunderground v.1.15,2013-05-06 04:12:00,
2013-05-05 23:17:00,52.0,48.3,30.16,ENE,69,1.0,12.0,87,0.00,,,0.00,Wunderground v.1.15,2013-05-06 04:17:00,
2013-05-05 23:22:00,51.0,47.3,30.17,West,264,0.0,12.0,87,0.00,,,0.00,Wunderground v.1.15,2013-05-06 04:22:00,
2013-05-05 23:32:00,50.0,47.2,30.17,West,266,0.0,12.0,90,0.00,,,0.00,Wunderground v.1.15,2013-05-06 04:32:00,
2013-05-05 23:37:00,50.0,47.5,30.17,West,265,0.0,12.0,91,0.00,,,0.00,Wunderground v.1.15,2013-05-06 04:37:00,
2013-05-05 23:42:00,50.0,47.5,30.16,West,266,0.0,12.0,91,0.00,,,0.00,Wunderground v.1.15,2013-05-06 04:42:00,
2013-05-05 23:47:00,49.7,47.2,30.16,West,266,0.0,12.0,91,0.00,,,0.00,Wunderground v.1.15,2013-05-06 04:47:00,
2013-05-05 23:52:00,49.3,46.8,30.16,West,266,0.0,12.0,91,0.00,,,0.00,Wunderground v.1.15,2013-05-06 04:52:00,
2013-05-05 23:57:00,49.2,47.3,30.16,West,266,0.0,12.0,93,0.00,,,0.00,Wunderground v.1.15,2013-05-06 04:57:00,